sat.trackr.live / text

‹ back to catalog

STARLINK-34576

NORAD 64701 · 2025-142F

PAYLOAD ACTIVE UNKNOWN

§ Identity

Operator
Country
US
Launch date
2025-06-28
Launch site
AFWTR
Launch vehicle
Mass (kg)
RCS (m²)

Purposes: comms

External: N2YO · Heavens-Above · Gunter

§ Orbital elements

Epoch: 2026-09-20T04:12:15.488928Z

Period
94.14 min
Inclination
70.0004°
Eccentricity
0.0003124
Mean motion
15.29591868 rev/d
Perigee alt
474.9 km
Apogee alt
479.2 km
Semi-major
6,855.2 km
B*
3.9302e-4
RAAN
181.6383°
Arg perigee
270.4311°
Mean anomaly
89.6506°
Rev number
6,865

§ Raw data

STARLINK-345761 64701U 25142F   26263.17517927  .00011191  00000+0  39302-3 0  99922 64701  70.0004 181.6383 0003124 270.4311  89.6506 15.29591868 68652

JSON: /api/v1/satellites/64701 · /tle

For live sub-satellite position, see the globe view (requires WebGL).

§ Visibility from observer

Set your observer location to see the next 7 days of passes ≥ 10°. The values pass through the URL so the page stays shareable.

No JS? Fill the form by hand. The geolocation button needs JavaScript.